Terminal Aerodrome Forecast
Issued by NWS

Home | Current Version | Previous Version | Text Only | Print | Product List | Glossary On
Versions: 1 2 3 4 5 6 7 8 9 10 11 12 13 14
169
FTUS45 KVEF 241732
TAFEED
TAF
KEED 241732Z 2418/2518 16008KT P6SM SCT120 BKN150
     FM242000 12006KT P6SM VCTS BKN100CB BKN150
      TEMPO 2420/2424 -TSRA BKN080CB
     FM250200 17007KT P6SM SCT100 BKN150=

USA.gov is the U.S. government's official web portal to all federal, state and local government web resources and services.